Regional Weather Roundup
Issued by NWS

Home | Current Version | Previous Version | Graphics & Text | Print | Product List | Glossary On
Versions: 1 2 3 4 5 6 7 8 9 10 11 12 13 14 15 16 17 18 19 20 21 22 23 24 25 26 27 28 29 30 31 32 33 34 35 36 37 38 39 40 41 42 43 44 45 46 47 48 49 50
000
ASUS45 KCYS 261010
RWRWY

WYOMING REGIONAL WEATHER ROUNDUP
NATIONAL WEATHER SERVICE CHEYENNE WY
400 AM MDT TUE JUL 26 2016

NOTE:  "FAIR" INDICATES FEW OR NO CLOUDS BELOW 12,000 FEET
WITH NO SIGNIFICANT WEATHER AND/OR OBSTRUCTIONS TO VISIBILITY.

WYZ001-261100-
YELLOWSTONE NATIONAL PARK

CITY           SKY/WX    TMP DP  RH WIND       PRES   REMARKS
LK YELLOWSTONE   N/A     42  34  73 NW3       30.35S
W YELLOWSTONE  NOT AVBL

$$
WYZ002>013-054>058-071-098>099-261100-
NORTHERN WYOMING

CITY           SKY/WX    TMP DP  RH WIND       PRES   REMARKS
JACKSON        FAIR      45  30  57 NE7       30.24S
CODY           FAIR      66  41  39 NW6       30.17F
GREYBULL       FAIR      75  43  31 NW14      30.01R
WORLAND        FAIR      73  43  33 NW14G20   30.07R
SHERIDAN       FAIR      73  45  36 W16       30.07S
BUFFALO        FAIR      67  46  47 N12       30.11R
GILLETTE       FAIR      67  60  78 NW10      30.04R
HULETT         FAIR      79  59  50 SW10G18   30.03F
NEWCASTLE      FAIR      73  55  53 E9        30.06S

$$
WYZ014>020-022>026-101>103-261100-
CENTRAL WYOMING

CITY           SKY/WX    TMP DP  RH WIND       PRES   REMARKS
BIG PINEY      FAIR      51  26  37 NE10      30.28F
PINEDALE       FAIR      43  32  65 NW7       30.30S
DUBOIS         CLOUDY    52  23  32 W12       30.28S HAZE
LANDER         FAIR      65  32  29 CALM      30.15R
RIVERTON       FAIR      68  40  35 N12       30.14S
CASPER         FAIR      60  40  47 W7        30.09S
DOUGLAS          N/A    N/A N/A N/A MISG      30.06F

$$
WYZ021-027>030-104>119-261100-
SOUTHERN WYOMING

CITY           SKY/WX    TMP DP  RH WIND       PRES   REMARKS
EVANSTON       FAIR      67  33  28 CALM      30.29S
KEMMERER         N/A     52  32  46 N10       30.30S
FORT BRIDGER   FAIR      71  32  24 SW10      30.29F
ROCK SPRINGS   FAIR      66  30  26 W6        30.25S
DIXON          FAIR      54  39  57 SE3       30.28S
RAWLINS        FAIR      59  30  33 SE6       30.25R
SARATOGA       FAIR      57  32  38 SE8       30.28S
LARAMIE        FAIR      54  40  59 S10       30.28S
CHEYENNE       FAIR      58  51  78 W8        30.19S
TORRINGTON     FAIR      64  62  93 E9        30.05S
PINE BLUFFS    FAIR      55  55 100 CALM      30.14F

$$



USA.gov is the U.S. government's official web portal to all federal, state and local government web resources and services.